| time (UTC) | temp F | wind direction | speed knots | gust knots | rain 1hr in | rain 24hr in | rain mn in | humidity % | barometer mb |
| 20260905171033 | 70 | 102 | 0.9 | 6.1 | 0.00 | 0.00 | 0.00 | 94 | 1017.1 |
| 20260905170528 | 69 | 184 | 0.0 | 7.0 | 0.00 | 0.00 | 0.00 | 95 | 1017.2 |
| 20260905170027 | 69 | 86 | 2.6 | 7.8 | 0.00 | 0.00 | 0.00 | 95 | 1017.2 |
| 20260905165525 | 68 | 111 | 0.0 | 7.8 | 0.00 | 0.00 | 0.00 | 97 | 1017.2 |
| 20260905165024 | 68 | 84 | 0.0 | 7.8 | 0.00 | 0.00 | 0.00 | 97 | 1017.2 |
| 20260905164625 | 68 | 122 | 2.6 | 8.7 | 0.00 | 0.00 | 0.00 | 97 | 1017.1 |
| 20260905164027 | 67 | 109 | 4.3 | 7.0 | 0.00 | 0.00 | 0.00 | 97 | 1016.9 |
| 20260905163521 | 67 | 217 | 1.7 | 5.2 | 0.00 | 0.00 | 0.00 | 98 | 1017.1 |
| 20260905163021 | 67 | 127 | 0.9 | 6.1 | 0.00 | 0.00 | 0.00 | 99 | 1017.3 |
| 20260905162520 | 66 | 101 | 1.7 | 4.3 | 0.00 | 0.00 | 0.00 | 99 | 1017.2 |
| 20260905162022 | 66 | 101 | 1.7 | 4.3 | 0.00 | 0.00 | 0.00 | 99 | 1017.4 |
| 20260905161517 | 66 | 115 | 1.7 | 4.3 | 0.00 | 0.00 | 0.00 | 100 | 1017.4 |
| 20260905161017 | 66 | 87 | 0.0 | 3.5 | 0.00 | 0.00 | 0.00 | 100 | 1017.3 |
| 20260905160515 | 66 | 89 | 0.0 | 4.3 | 0.00 | 0.00 | 0.00 | 100 | 1017.3 |
| 20260905160015 | 65 | 86 | 0.9 | 5.2 | 0.00 | 0.00 | 0.00 | 100 | 1017.1 |
| 20260905155513 | 65 | 69 | 2.6 | 5.2 | 0.00 | 0.00 | 0.00 | 100 | 1017.2 |
| 20260905155014 | 65 | 107 | 2.6 | 7.0 | 0.00 | 0.00 | 0.00 | 100 | 1017.1 |
| 20260905154514 | 65 | 89 | 5.2 | 7.8 | 0.00 | 0.00 | 0.00 | 100 | 1016.8 |
| 20260905154015 | 64 | 94 | 5.2 | 7.8 | 0.00 | 0.00 | 0.00 | 100 | 1016.9 |
| 20260905153512 | 64 | 11 | 5.2 | 7.8 | 0.00 | 0.00 | 0.00 | 100 | 1017.0 |
| 20260905153010 | 64 | 72 | 3.5 | 7.0 | 0.00 | 0.00 | 0.00 | 100 | 1017.2 |
| 20260905152513 | 64 | 82 | 2.6 | 7.0 | 0.00 | 0.00 | 0.00 | 100 | 1017.3 |
| 20260905152009 | 64 | 71 | 2.6 | 5.2 | 0.00 | 0.00 | 0.00 | 100 | 1017.3 |
| 20260905151509 | 64 | 65 | 0.9 | 5.2 | 0.00 | 0.00 | 0.00 | 100 | 1017.3 |
| 20260905151012 | 64 | 70 | 2.6 | 6.1 | 0.00 | 0.00 | 0.00 | 100 | 1017.3 |
| 20260905150507 | 64 | 113 | 1.7 | 6.1 | 0.00 | 0.00 | 0.00 | 100 | 1017.2 |
| 20260905150006 | 64 | 94 | 2.6 | 6.1 | 0.00 | 0.00 | 0.00 | 100 | 1017.0 |
| 20260905145508 | 63 | 65 | 1.7 | 4.3 | 0.00 | 0.00 | 0.00 | 100 | 1017.0 |
| 20260905145007 | 63 | 66 | 0.9 | 2.6 | 0.00 | 0.00 | 0.00 | 100 | 1017.2 |
| 20260905144506 | 63 | 77 | 0.0 | 2.6 | 0.00 | 0.00 | 0.00 | 100 | 1017.4 |
| 20260905144007 | 63 | 73 | 0.0 | 2.6 | 0.00 | 0.00 | 0.00 | 100 | 1017.5 |
| 20260905143506 | 63 | 79 | 0.0 | 2.6 | 0.00 | 0.00 | 0.00 | 100 | 1017.4 |
| 20260905143004 | 63 | 65 | 0.0 | 4.3 | 0.00 | 0.00 | 0.00 | 100 | 1017.1 |
| 20260905142502 | 63 | 103 | 0.9 | 5.2 | 0.00 | 0.00 | 0.00 | 100 | 1016.8 |
| 20260905142003 | 63 | 79 | 0.9 | 6.1 | 0.00 | 0.00 | 0.00 | 100 | 1016.7 |
| 20260905141506 | 63 | 48 | 2.6 | 5.2 | 0.00 | 0.00 | 0.00 | 100 | 1016.7 |
| 20260905141002 | 63 | 98 | 2.6 | 6.1 | 0.00 | 0.00 | 0.00 | 100 | 1016.6 |
| 20260905140504 | 63 | 73 | 3.5 | 6.1 | 0.00 | 0.00 | 0.00 | 100 | 1016.6 |
| 20260905140000 | 63 | 88 | 2.6 | 7.0 | 0.00 | 0.00 | 0.00 | 100 | 1016.6 |
| 20260905135502 | 62 | 58 | 3.5 | 7.0 | 0.00 | 0.00 | 0.00 | 100 | 1016.6 |
| 20260905135100 | 62 | 92 | 3.5 | 6.1 | 0.00 | 0.00 | 0.00 | 100 | 1016.5 |
| 20260905135003 | 62 | 110 | 3.5 | 6.1 | 0.00 | 0.00 | 0.00 | 100 | 1016.6 |
| 20260905134603 | 62 | 84 | 3.5 | 6.1 | 0.00 | 0.00 | 0.00 | 100 | 1016.5 |
| 20260905134059 | 62 | 73 | 3.5 | 5.2 | 0.00 | 0.00 | 0.00 | 100 | 1016.7 |
| 20260905133601 | 62 | 64 | 2.6 | 4.3 | 0.00 | 0.00 | 0.00 | 100 | 1016.6 |
| 20260905133059 | 62 | 69 | 2.6 | 4.3 | 0.00 | 0.00 | 0.00 | 100 | 1016.7 |
| 20260905132557 | 62 | 86 | 1.7 | 3.5 | 0.00 | 0.00 | 0.00 | 100 | 1016.8 |
| 20260905132057 | 62 | 96 | 0.9 | 3.5 | 0.00 | 0.00 | 0.00 | 100 | 1016.8 |
| 20260905131603 | 62 | 81 | 0.9 | 3.5 | 0.00 | 0.00 | 0.00 | 100 | 1016.8 |
| 20260905131055 | 62 | 57 | 0.9 | 3.5 | 0.00 | 0.00 | 0.00 | 100 | 1016.8 |
| 20260905130611 | 62 | 96 | 0.9 | 3.5 | 0.00 | 0.00 | 0.00 | 100 | 1016.7 |
| 20260905130055 | 62 | 89 | 0.9 | 3.5 | 0.00 | 0.00 | 0.00 | 100 | 1016.6 |
| 20260905125552 | 62 | 91 | 0.9 | 2.6 | 0.00 | 0.00 | 0.00 | 100 | 1016.5 |
| 20260905125047 | 62 | 103 | 0.9 | 4.3 | 0.00 | 0.00 | 0.00 | 100 | 1016.4 |
| 20260905124544 | 62 | 94 | 1.7 | 4.3 | 0.00 | 0.00 | 0.00 | 100 | 1016.1 |
| 20260905124510 | 62 | 128 | 1.7 | 4.3 | 0.00 | 0.00 | 0.00 | 100 | 1016.1 |
| 20260905124043 | 62 | 86 | 1.7 | 5.2 | 0.00 | 0.00 | 0.00 | 100 | 1015.9 |
| 20260905123539 | 62 | 92 | 2.6 | 6.1 | 0.00 | 0.00 | 0.00 | 100 | 1015.6 |
| 20260905123036 | 61 | 94 | 3.5 | 6.1 | 0.00 | 0.00 | 0.00 | 100 | 1015.5 |
| 20260905122540 | 61 | 93 | 2.6 | 6.1 | 0.00 | 0.00 | 0.00 | 100 | 1015.5 |
| 20260905122051 | 61 | 111 | 3.5 | 4.3 | 0.00 | 0.00 | 0.00 | 100 | 1015.4 |
| 20260905121533 | 61 | 106 | 1.7 | 4.3 | 0.00 | 0.00 | 0.00 | 100 | 1015.6 |
| 20260905121044 | 61 | 100 | 1.7 | 5.2 | 0.00 | 0.00 | 0.00 | 100 | 1015.6 |
| 20260905120557 | 61 | 113 | 2.6 | 5.2 | 0.00 | 0.00 | 0.00 | 100 | 1015.6 |
| 20260905120030 | 61 | 105 | 1.7 | 5.2 | 0.00 | 0.00 | 0.00 | 100 | 1015.3 |
| 20260905115530 | 61 | 92 | 1.7 | 5.2 | 0.00 | 0.00 | 0.00 | 100 | 1015.5 |
| 20260905115032 | 62 | 156 | 0.9 | 3.5 | 0.00 | 0.00 | 0.00 | 100 | 1015.6 |
| 20260905114532 | 62 | 91 | 2.6 | 4.3 | 0.00 | 0.00 | 0.00 | 100 | 1015.4 |
| 20260905114034 | 62 | 81 | 0.0 | 5.2 | 0.00 | 0.00 | 0.00 | 100 | 1015.7 |
| 20260905113528 | 62 | 72 | 2.6 | 6.1 | 0.00 | 0.00 | 0.00 | 100 | 1015.4 |
| 20260905113028 | 62 | 102 | 3.5 | 7.0 | 0.00 | 0.00 | 0.00 | 100 | 1015.3 |
| 20260905112529 | 62 | 101 | 3.5 | 7.0 | 0.00 | 0.00 | 0.00 | 100 | 1015.2 |
| 20260905112029 | 62 | 103 | 3.5 | 6.1 | 0.00 | 0.00 | 0.00 | 100 | 1015.2 |
| 20260905111528 | 62 | 79 | 2.6 | 6.1 | 0.00 | 0.00 | 0.00 | 100 | 1015.3 |
| 20260905111027 | 61 | 113 | 3.5 | 6.1 | 0.00 | 0.00 | 0.00 | 100 | 1015.3 |
| 20260905110527 | 62 | 79 | 2.6 | 5.2 | 0.00 | 0.00 | 0.00 | 100 | 1015.3 |
| 20260905110025 | 62 | 83 | 1.7 | 6.1 | 0.00 | 0.00 | 0.00 | 100 | 1015.3 |
| 20260905105525 | 62 | 94 | 0.9 | 6.1 | 0.00 | 0.00 | 0.00 | 100 | 1015.3 |
| 20260905105025 | 62 | 99 | 2.6 | 6.1 | 0.00 | 0.00 | 0.00 | 100 | 1015.2 |
| 20260905104526 | 62 | 88 | 0.9 | 3.5 | 0.00 | 0.00 | 0.00 | 100 | 1015.1 |
| 20260905104026 | 62 | 82 | 2.6 | 6.1 | 0.00 | 0.00 | 0.00 | 100 | 1015.1 |
| 20260905103523 | 62 | 101 | 2.6 | 6.1 | 0.00 | 0.00 | 0.00 | 100 | 1014.8 |
| 20260905103023 | 62 | 90 | 2.6 | 5.2 | 0.00 | 0.00 | 0.00 | 100 | 1014.8 |
| 20260905102523 | 62 | 110 | 2.6 | 5.2 | 0.00 | 0.00 | 0.00 | 100 | 1014.8 |
| 20260905102022 | 62 | 92 | 2.6 | 4.3 | 0.00 | 0.00 | 0.00 | 100 | 1014.9 |
| 20260905101526 | 62 | 92 | 1.7 | 3.5 | 0.00 | 0.00 | 0.00 | 100 | 1014.9 |
| 20260905101023 | 62 | 107 | 1.7 | 3.5 | 0.00 | 0.00 | 0.00 | 100 | 1014.8 |
| 20260905100522 | 62 | 95 | 0.9 | 3.5 | 0.00 | 0.00 | 0.00 | 100 | 1015.0 |
| 20260905100021 | 62 | 81 | 0.9 | 3.5 | 0.00 | 0.00 | 0.00 | 100 | 1015.0 |
| 20260905095521 | 62 | 106 | 1.7 | 3.5 | 0.00 | 0.00 | 0.00 | 100 | 1015.2 |
| 20260905095022 | 62 | 107 | 0.0 | 4.3 | 0.00 | 0.00 | 0.00 | 100 | 1014.9 |
| 20260905094522 | 62 | 111 | 2.6 | 7.0 | 0.00 | 0.00 | 0.00 | 100 | 1014.6 |
| 20260905094020 | 62 | 98 | 3.5 | 7.0 | 0.00 | 0.00 | 0.00 | 100 | 1014.4 |
| 20260905093519 | 62 | 119 | 1.7 | 4.3 | 0.00 | 0.00 | 0.00 | 100 | 1014.3 |
| 20260905093019 | 62 | 88 | 0.9 | 5.2 | 0.00 | 0.00 | 0.00 | 100 | 1014.2 |
| 20260905092518 | 62 | 85 | 2.6 | 6.1 | 0.00 | 0.00 | 0.00 | 100 | 1014.1 |
| 20260905092018 | 62 | 113 | 2.6 | 6.1 | 0.00 | 0.00 | 0.00 | 100 | 1014.1 |
| 20260905091518 | 62 | 88 | 1.7 | 7.8 | 0.00 | 0.00 | 0.00 | 100 | 1014.1 |
| 20260905091019 | 62 | 94 | 3.5 | 7.8 | 0.00 | 0.00 | 0.00 | 100 | 1014.2 |
| 20260905090518 | 62 | 105 | 3.5 | 7.0 | 0.00 | 0.00 | 0.00 | 100 | 1014.2 |
| 20260905090016 | 62 | 85 | 2.6 | 7.0 | 0.00 | 0.00 | 0.00 | 100 | 1014.2 |
| 20260905085515 | 62 | 68 | 3.5 | 5.2 | 0.00 | 0.00 | 0.00 | 100 | 1014.4 |
| 20260905085014 | 62 | 81 | 2.6 | 5.2 | 0.00 | 0.00 | 0.00 | 100 | 1014.6 |
| 20260905084513 | 62 | 90 | 2.6 | 5.2 | 0.00 | 0.00 | 0.00 | 100 | 1014.7 |
| 20260905084014 | 62 | 56 | 2.6 | 5.2 | 0.00 | 0.00 | 0.00 | 100 | 1014.8 |
| 20260905083513 | 62 | 94 | 3.5 | 7.0 | 0.00 | 0.00 | 0.00 | 100 | 1014.9 |
| 20260905083018 | 62 | 105 | 3.5 | 7.0 | 0.00 | 0.00 | 0.00 | 100 | 1014.9 |
| 20260905082513 | 62 | 93 | 2.6 | 5.2 | 0.00 | 0.00 | 0.00 | 100 | 1014.9 |
| 20260905082013 | 62 | 82 | 1.7 | 3.5 | 0.00 | 0.00 | 0.00 | 100 | 1015.0 |
| 20260905081512 | 62 | 115 | 1.7 | 4.3 | 0.00 | 0.00 | 0.00 | 100 | 1014.9 |
| 20260905081011 | 62 | 79 | 1.7 | 5.2 | 0.00 | 0.00 | 0.00 | 100 | 1014.8 |
| 20260905080511 | 62 | 48 | 2.6 | 7.0 | 0.00 | 0.00 | 0.00 | 100 | 1014.7 |
| 20260905080012 | 62 | 82 | 3.5 | 8.7 | 0.00 | 0.00 | 0.00 | 100 | 1014.7 |
| 20260905075510 | 62 | 51 | 5.2 | 9.6 | 0.00 | 0.00 | 0.00 | 100 | 1014.8 |
| 20260905075010 | 62 | 58 | 3.5 | 5.2 | 0.00 | 0.00 | 0.00 | 100 | 1014.8 |
| 20260905074516 | 62 | 102 | 1.7 | 5.2 | 0.00 | 0.00 | 0.00 | 100 | 1014.9 |
| 20260905074010 | 62 | 90 | 2.6 | 7.0 | 0.00 | 0.00 | 0.00 | 100 | 1014.9 |
| 20260905073509 | 62 | 107 | 3.5 | 7.0 | 0.00 | 0.00 | 0.00 | 100 | 1014.9 |
| 20260905073009 | 62 | 129 | 3.5 | 5.2 | 0.00 | 0.00 | 0.00 | 99 | 1014.9 |
| 20260905072509 | 62 | 97 | 3.5 | 5.2 | 0.00 | 0.00 | 0.00 | 99 | 1014.9 |
| 20260905072008 | 62 | 86 | 2.6 | 6.1 | 0.00 | 0.00 | 0.00 | 99 | 1014.8 |
| 20260905071516 | 62 | 98 | 1.7 | 6.1 | 0.00 | 0.00 | 0.00 | 99 | 1014.7 |
| 20260905071007 | 62 | 79 | 3.5 | 7.0 | 0.00 | 0.00 | 0.00 | 99 | 1014.7 |
| 20260905070507 | 62 | 68 | 3.5 | 7.0 | 0.00 | 0.00 | 0.00 | 99 | 1014.7 |
| 20260905070008 | 62 | 77 | 2.6 | 5.2 | 0.00 | 0.00 | 0.00 | 99 | 1014.7 |
| 20260905065510 | 63 | 82 | 3.5 | 6.1 | 0.00 | 0.00 | 0.00 | 99 | 1014.6 |
| 20260905065108 | 63 | 54 | 3.5 | 6.1 | 0.00 | 0.00 | 0.00 | 99 | 1014.7 |
| 20260905064507 | 62 | 77 | 2.6 | 7.0 | 0.00 | 0.00 | 0.00 | 99 | 1014.8 |
| 20260905064009 | 62 | 72 | 3.5 | 7.0 | 0.00 | 0.00 | 0.00 | 99 | 1015.0 |
| 20260905063505 | 62 | 75 | 3.5 | 6.1 | 0.00 | 0.00 | 0.00 | 99 | 1014.9 |
| 20260905063005 | 62 | 60 | 2.6 | 5.2 | 0.00 | 0.00 | 0.00 | 99 | 1014.9 |
| 20260905062508 | 62 | 72 | 3.5 | 6.1 | 0.00 | 0.00 | 0.00 | 99 | 1014.8 |
| 20260905062006 | 62 | 51 | 3.5 | 7.0 | 0.00 | 0.00 | 0.00 | 99 | 1014.7 |
| 20260905061506 | 62 | 70 | 4.3 | 8.7 | 0.00 | 0.00 | 0.00 | 99 | 1014.7 |
| 20260905061003 | 62 | 58 | 2.6 | 8.7 | 0.00 | 0.00 | 0.00 | 99 | 1014.6 |
| 20260905060503 | 62 | 70 | 4.3 | 9.6 | 0.00 | 0.00 | 0.00 | 99 | 1014.6 |
| 20260905060003 | 62 | 51 | 7.0 | 9.6 | 0.00 | 0.00 | 0.00 | 98 | 1014.6 |
| 20260905055501 | 62 | 63 | 4.3 | 8.7 | 0.00 | 0.00 | 0.00 | 98 | 1014.6 |
| 20260905055001 | 62 | 64 | 5.2 | 9.6 | 0.00 | 0.00 | 0.00 | 98 | 1014.7 |
| 20260905054501 | 62 | 72 | 3.5 | 6.1 | 0.00 | 0.00 | 0.00 | 98 | 1014.7 |
| 20260905054104 | 62 | 84 | 2.6 | 5.2 | 0.00 | 0.00 | 0.00 | 97 | 1014.8 |
| 20260905053559 | 63 | 61 | 2.6 | 5.2 | 0.00 | 0.00 | 0.00 | 97 | 1014.8 |
| 20260905053100 | 63 | 65 | 1.7 | 5.2 | 0.00 | 0.00 | 0.00 | 97 | 1014.8 |
| 20260905052558 | 63 | 68 | 1.7 | 3.5 | 0.00 | 0.00 | 0.00 | 97 | 1014.9 |
| 20260905052057 | 63 | 85 | 1.7 | 4.3 | 0.00 | 0.00 | 0.00 | 97 | 1014.9 |
| 20260905051556 | 63 | 115 | 1.7 | 5.2 | 0.00 | 0.00 | 0.00 | 97 | 1014.9 |
| 20260905051055 | 63 | 86 | 0.9 | 5.2 | 0.00 | 0.00 | 0.00 | 96 | 1014.6 |
| 20260905050555 | 64 | 71 | 0.9 | 5.2 | 0.00 | 0.00 | 0.00 | 96 | 1014.7 |
| 20260905050053 | 64 | 97 | 1.7 | 5.2 | 0.00 | 0.00 | 0.00 | 96 | 1014.8 |
| 20260905045553 | 64 | 91 | 2.6 | 6.1 | 0.00 | 0.00 | 0.00 | 96 | 1014.7 |
| 20260905045052 | 64 | 41 | 2.6 | 6.1 | 0.00 | 0.00 | 0.00 | 96 | 1014.6 |
| 20260905044552 | 64 | 86 | 3.5 | 6.1 | 0.00 | 0.00 | 0.00 | 96 | 1014.6 |
| 20260905044050 | 64 | 37 | 2.6 | 7.0 | 0.00 | 0.00 | 0.00 | 96 | 1014.6 |
| 20260905043549 | 64 | 101 | 3.5 | 7.0 | 0.00 | 0.00 | 0.00 | 96 | 1014.5 |
| 20260905043048 | 64 | 134 | 1.7 | 6.1 | 0.00 | 0.00 | 0.00 | 96 | 1014.4 |
| 20260905042551 | 65 | 63 | 1.7 | 5.2 | 0.00 | 0.00 | 0.00 | 95 | 1014.3 |
| 20260905042047 | 65 | 77 | 1.7 | 5.2 | 0.00 | 0.00 | 0.00 | 95 | 1014.3 |
| 20260905041547 | 65 | 81 | 2.6 | 5.2 | 0.00 | 0.00 | 0.00 | 95 | 1014.2 |
| 20260905041045 | 65 | 172 | 2.6 | 6.1 | 0.00 | 0.00 | 0.00 | 95 | 1014.2 |
| 20260905040545 | 65 | 71 | 4.3 | 7.0 | 0.00 | 0.00 | 0.00 | 94 | 1014.3 |
| 20260905040051 | 66 | 110 | 5.2 | 7.8 | 0.00 | 0.00 | 0.00 | 94 | 1014.3 |
| 20260905035543 | 66 | 77 | 5.2 | 7.8 | 0.00 | 0.00 | 0.00 | 94 | 1014.3 |
| 20260905035042 | 66 | 120 | 3.5 | 7.8 | 0.00 | 0.00 | 0.00 | 94 | 1014.4 |
| 20260905034541 | 66 | 79 | 1.7 | 5.2 | 0.00 | 0.00 | 0.00 | 93 | 1014.2 |
| 20260905034041 | 66 | 88 | 2.6 | 6.1 | 0.00 | 0.00 | 0.00 | 93 | 1014.2 |
| 20260905033539 | 67 | 89 | 4.3 | 8.7 | 0.00 | 0.00 | 0.00 | 92 | 1014.2 |
| 20260905033039 | 67 | 68 | 4.3 | 8.7 | 0.00 | 0.00 | 0.00 | 92 | 1014.1 |
| 20260905032539 | 67 | 73 | 5.2 | 7.8 | 0.00 | 0.00 | 0.00 | 92 | 1014.1 |
| 20260905032038 | 67 | 91 | 6.1 | 7.8 | 0.00 | 0.00 | 0.00 | 91 | 1014.1 |
| 20260905031538 | 68 | 111 | 5.2 | 9.6 | 0.00 | 0.00 | 0.00 | 91 | 1014.1 |
| 20260905031037 | 68 | 75 | 5.2 | 9.6 | 0.00 | 0.00 | 0.00 | 91 | 1013.9 |
| 20260905030538 | 69 | 70 | 6.1 | 9.6 | 0.00 | 0.00 | 0.00 | 91 | 1013.8 |
| 20260905030044 | 69 | 69 | 5.2 | 7.8 | 0.00 | 0.00 | 0.00 | 91 | 1013.9 |
| 20260905025537 | 69 | 61 | 5.2 | 7.8 | 0.00 | 0.00 | 0.00 | 91 | 1013.9 |
| 20260905025036 | 70 | 68 | 2.6 | 7.0 | 0.00 | 0.00 | 0.00 | 90 | 1014.0 |
| 20260905024536 | 70 | 95 | 3.5 | 7.0 | 0.00 | 0.00 | 0.00 | 90 | 1013.9 |
| 20260905024034 | 70 | 60 | 3.5 | 8.7 | 0.00 | 0.00 | 0.00 | 90 | 1013.8 |
| 20260905023533 | 71 | 48 | 5.2 | 8.7 | 0.00 | 0.00 | 0.00 | 90 | 1013.6 |
| 20260905023033 | 71 | 96 | 4.3 | 6.1 | 0.00 | 0.00 | 0.00 | 90 | 1013.5 |
| 20260905022533 | 71 | 109 | 3.5 | 6.1 | 0.00 | 0.00 | 0.00 | 89 | 1013.5 |
| 20260905022032 | 71 | 54 | 3.5 | 7.0 | 0.00 | 0.00 | 0.00 | 89 | 1013.5 |
| 20260905021532 | 72 | 77 | 4.3 | 7.0 | 0.00 | 0.00 | 0.00 | 89 | 1013.4 |
| 20260905021030 | 72 | 78 | 4.3 | 6.1 | 0.00 | 0.00 | 0.00 | 89 | 1013.3 |
| 20260905020530 | 72 | 112 | 1.7 | 5.2 | 0.00 | 0.00 | 0.00 | 90 | 1013.2 |
| 20260905020032 | 72 | 77 | 1.7 | 4.3 | 0.00 | 0.00 | 0.00 | 90 | 1013.0 |
| 20260905015529 | 72 | 91 | 0.0 | 2.6 | 0.00 | 0.00 | 0.00 | 89 | 1013.1 |
| 20260905015030 | 72 | 79 | 0.0 | 1.7 | 0.00 | 0.00 | 0.00 | 89 | 1013.0 |
| 20260905014528 | 72 | 91 | 0.0 | 2.6 | 0.00 | 0.00 | 0.00 | 89 | 1013.1 |
| 20260905014028 | 72 | 73 | 0.9 | 2.6 | 0.00 | 0.00 | 0.00 | 88 | 1013.0 |
| 20260905013532 | 73 | 77 | 0.0 | 2.6 | 0.00 | 0.00 | 0.00 | 87 | 1012.9 |
| 20260905013028 | 73 | 77 | 0.0 | 2.6 | 0.00 | 0.00 | 0.00 | 87 | 1012.9 |
| 20260905012527 | 73 | 85 | 0.0 | 2.6 | 0.00 | 0.00 | 0.00 | 86 | 1012.8 |
| 20260905012025 | 74 | 117 | 0.0 | 1.7 | 0.00 | 0.00 | 0.00 | 85 | 1012.8 |
| 20260905011525 | 74 | 110 | 0.0 | 1.7 | 0.00 | 0.00 | 0.00 | 85 | 1012.7 |
| 20260905011024 | 75 | 101 | 0.0 | 0.9 | 0.00 | 0.00 | 0.00 | 85 | 1012.6 |
| 20260905010525 | 75 | 97 | 0.0 | 0.9 | 0.00 | 0.00 | 0.00 | 85 | 1012.6 |
| 20260905010124 | 75 | 99 | 0.0 | 0.9 | 0.00 | 0.00 | 0.00 | 85 | 1012.6 |
| 20260905005524 | 75 | 87 | 0.0 | 0.9 | 0.00 | 0.00 | 0.00 | 83 | 1012.6 |
| 20260905005025 | 76 | 88 | 0.0 | 0.9 | 0.00 | 0.00 | 0.00 | 83 | 1012.6 |
| 20260905004524 | 76 | 73 | 0.0 | 2.6 | 0.00 | 0.00 | 0.00 | 82 | 1012.6 |
| 20260905004024 | 77 | 77 | 0.0 | 4.3 | 0.00 | 0.00 | 0.00 | 81 | 1012.5 |
| 20260905003525 | 77 | 67 | 0.9 | 4.3 | 0.00 | 0.00 | 0.00 | 80 | 1012.5 |
| 20260905003022 | 78 | 68 | 0.0 | 4.3 | 0.00 | 0.00 | 0.00 | 78 | 1012.5 |
| 20260905002521 | 78 | 105 | 1.7 | 5.2 | 0.00 | 0.00 | 0.00 | 77 | 1012.4 |
| 20260905002021 | 79 | 68 | 3.5 | 5.2 | 0.00 | 0.00 | 0.00 | 76 | 1012.4 |
| 20260905001521 | 79 | 70 | 3.5 | 5.2 | 0.00 | 0.00 | 0.00 | 76 | 1012.4 |
| 20260905001023 | 80 | 67 | 2.6 | 4.3 | 0.00 | 0.00 | 0.00 | 75 | 1012.4 |
| 20260905000520 | 80 | 91 | 1.7 | 4.3 | 0.00 | 0.00 | 0.00 | 75 | 1012.3 |
| 20260905000020 | 80 | 89 | 1.7 | 6.1 | 0.00 | 0.00 | 0.00 | 74 | 1012.2 |
| 20260904235519 | 80 | 87 | 3.5 | 7.0 | 0.00 | 0.00 | 0.00 | 73 | 1012.2 |
| 20260904235024 | 81 | 65 | 3.5 | 7.0 | 0.00 | 0.00 | 0.00 | 73 | 1012.2 |
| 20260904234521 | 81 | 65 | 0.9 | 5.2 | 0.00 | 0.00 | 0.00 | 73 | 1012.2 |
| 20260904234019 | 81 | 86 | 1.7 | 7.0 | 0.00 | 0.00 | 0.00 | 72 | 1012.2 |
| 20260904233519 | 81 | 60 | 1.7 | 7.0 | 0.00 | 0.00 | 0.00 | 72 | 1012.1 |
| 20260904233019 | 81 | 57 | 3.5 | 7.0 | 0.00 | 0.00 | 0.00 | 71 | 1012.2 |
| 20260904232518 | 82 | 77 | 4.3 | 7.0 | 0.00 | 0.00 | 0.00 | 70 | 1012.2 |
| 20260904232018 | 82 | 83 | 1.7 | 7.0 | 0.00 | 0.00 | 0.00 | 70 | 1012.1 |
| 20260904231517 | 82 | 72 | 3.5 | 7.0 | 0.00 | 0.00 | 0.00 | 68 | 1012.1 |
| 20260904231017 | 82 | 90 | 3.5 | 7.0 | 0.00 | 0.00 | 0.00 | 70 | 1012.1 |
| 20260904230517 | 82 | 73 | 4.3 | 7.0 | 0.00 | 0.00 | 0.00 | 69 | 1012.1 |
| 20260904230025 | 82 | 87 | 2.6 | 8.7 | 0.00 | 0.00 | 0.00 | 68 | 1012.0 |
| 20260904225516 | 82 | 73 | 2.6 | 8.7 | 0.00 | 0.00 | 0.00 | 69 | 1011.9 |
| 20260904225016 | 82 | 58 | 3.5 | 7.0 | 0.00 | 0.00 | 0.00 | 69 | 1011.8 |
| 20260904224525 | 82 | 12 | 4.3 | 7.8 | 0.00 | 0.00 | 0.00 | 68 | 1011.9 |
| 20260904224016 | 82 | 113 | 3.5 | 8.7 | 0.00 | 0.00 | 0.00 | 69 | 1011.8 |
| 20260904223517 | 82 | 70 | 5.2 | 8.7 | 0.00 | 0.00 | 0.00 | 67 | 1011.8 |
| 20260904223015 | 82 | 65 | 3.5 | 8.7 | 0.00 | 0.00 | 0.00 | 68 | 1011.7 |
| 20260904222518 | 82 | 70 | 6.1 | 8.7 | 0.00 | 0.00 | 0.00 | 68 | 1011.7 |
| 20260904222015 | 82 | 81 | 3.5 | 8.7 | 0.00 | 0.00 | 0.00 | 69 | 1011.6 |
| 20260904221521 | 82 | 77 | 5.2 | 8.7 | 0.00 | 0.00 | 0.00 | 67 | 1011.7 |
| 20260904221015 | 82 | 81 | 5.2 | 7.8 | 0.00 | 0.00 | 0.00 | 68 | 1011.7 |
| 20260904220513 | 82 | 108 | 3.5 | 7.0 | 0.00 | 0.00 | 0.00 | 68 | 1011.6 |
| 20260904220012 | 82 | 90 | 3.5 | 7.0 | 0.00 | 0.00 | 0.00 | 69 | 1011.6 |
| 20260904215512 | 82 | 110 | 4.3 | 7.0 | 0.00 | 0.00 | 0.00 | 70 | 1011.5 |
| 20260904215011 | 82 | 85 | 3.5 | 6.1 | 0.00 | 0.00 | 0.00 | 69 | 1011.5 |
| 20260904214517 | 82 | 71 | 3.5 | 6.1 | 0.00 | 0.00 | 0.00 | 70 | 1011.6 |
| 20260904214009 | 82 | 94 | 1.7 | 6.1 | 0.00 | 0.00 | 0.00 | 71 | 1011.7 |
| 20260904213511 | 81 | 98 | 3.5 | 7.0 | 0.00 | 0.00 | 0.00 | 71 | 1011.6 |
| 20260904213009 | 81 | 92 | 4.3 | 7.0 | 0.00 | 0.00 | 0.00 | 71 | 1011.6 |
| 20260904212509 | 81 | 98 | 3.5 | 7.0 | 0.00 | 0.00 | 0.00 | 72 | 1011.5 |
| 20260904212008 | 82 | 105 | 3.5 | 7.8 | 0.00 | 0.00 | 0.00 | 71 | 1011.5 |
| 20260904211507 | 82 | 113 | 4.3 | 7.8 | 0.00 | 0.00 | 0.00 | 72 | 1011.5 |
| 20260904211012 | 82 | 65 | 4.3 | 7.8 | 0.00 | 0.00 | 0.00 | 72 | 1011.4 |
| 20260904210507 | 81 | 81 | 4.3 | 7.8 | 0.00 | 0.00 | 0.00 | 73 | 1011.5 |
| 20260904210006 | 81 | 84 | 4.3 | 7.0 | 0.00 | 0.00 | 0.00 | 74 | 1011.5 |
| 20260904205507 | 81 | 98 | 3.5 | 7.8 | 0.00 | 0.00 | 0.00 | 73 | 1011.6 |
| 20260904205005 | 81 | 77 | 4.3 | 7.8 | 0.00 | 0.00 | 0.00 | 74 | 1011.5 |
| 20260904204508 | 81 | 88 | 3.5 | 7.0 | 0.00 | 0.00 | 0.00 | 74 | 1011.5 |
| 20260904204004 | 80 | 104 | 3.5 | 7.0 | 0.00 | 0.00 | 0.00 | 75 | 1011.5 |
| 20260904203504 | 80 | 103 | 4.3 | 6.1 | 0.00 | 0.00 | 0.00 | 75 | 1011.6 |
| 20260904203003 | 81 | 101 | 3.5 | 6.1 | 0.00 | 0.00 | 0.00 | 75 | 1011.7 |
| 20260904202503 | 80 | 84 | 4.3 | 7.0 | 0.00 | 0.00 | 0.00 | 75 | 1011.7 |
| 20260904202003 | 81 | 108 | 3.5 | 10.4 | 0.00 | 0.00 | 0.00 | 76 | 1011.7 |
| 20260904201503 | 81 | 47 | 6.1 | 10.4 | 0.00 | 0.00 | 0.00 | 75 | 1011.6 |
| 20260904201003 | 80 | 64 | 3.5 | 10.4 | 0.00 | 0.00 | 0.00 | 75 | 1011.6 |
| 20260904200502 | 80 | 93 | 4.3 | 10.4 | 0.00 | 0.00 | 0.00 | 75 | 1011.6 |
| 20260904200002 | 80 | 96 | 5.2 | 8.7 | 0.00 | 0.00 | 0.00 | 76 | 1011.7 |
| 20260904195504 | 80 | 70 | 5.2 | 9.6 | 0.00 | 0.00 | 0.00 | 76 | 1011.6 |
| 20260904195001 | 80 | 75 | 5.2 | 11.3 | 0.00 | 0.00 | 0.00 | 77 | 1011.6 |
| 20260904194608 | 80 | 152 | 6.1 | 11.3 | 0.00 | 0.00 | 0.00 | 78 | 1011.7 |
| 20260904194100 | 80 | 73 | 7.8 | 9.6 | 0.00 | 0.00 | 0.00 | 77 | 1011.7 |
| 20260904193600 | 80 | 103 | 5.2 | 9.6 | 0.00 | 0.00 | 0.00 | 77 | 1011.7 |
| 20260904193059 | 80 | 69 | 7.0 | 11.3 | 0.00 | 0.00 | 0.00 | 77 | 1011.7 |
| 20260904192558 | 80 | 96 | 6.1 | 8.7 | 0.00 | 0.00 | 0.00 | 77 | 1011.7 |
| 20260904192058 | 80 | 56 | 4.3 | 8.7 | 0.00 | 0.00 | 0.00 | 78 | 1011.6 |
| 20260904191557 | 79 | 97 | 5.2 | 8.7 | 0.00 | 0.00 | 0.00 | 78 | 1011.7 |
| 20260904191156 | 79 | 83 | 4.3 | 7.8 | 0.00 | 0.00 | 0.00 | 78 | 1011.7 |
| 20260904190555 | 79 | 101 | 4.3 | 10.4 | 0.00 | 0.00 | 0.00 | 79 | 1011.7 |
| 20260904190057 | 79 | 77 | 5.2 | 11.3 | 0.00 | 0.00 | 0.00 | 80 | 1011.7 |
| 20260904185554 | 79 | 108 | 4.3 | 11.3 | 0.00 | 0.00 | 0.00 | 80 | 1011.8 |
| 20260904185054 | 79 | 56 | 6.1 | 11.3 | 0.00 | 0.00 | 0.00 | 81 | 1011.8 |
| 20260904184554 | 79 | 81 | 3.5 | 11.3 | 0.00 | 0.00 | 0.00 | 82 | 1011.8 |
| 20260904184055 | 79 | 58 | 6.1 | 10.4 | 0.00 | 0.00 | 0.00 | 81 | 1011.8 |
| 20260904183552 | 78 | 75 | 5.2 | 7.8 | 0.00 | 0.00 | 0.00 | 82 | 1011.8 |
| 20260904183110 | 78 | 98 | 4.3 | 7.8 | 0.00 | 0.00 | 0.00 | 83 | 1011.9 |
| 20260904182549 | 78 | 109 | 3.5 | 9.6 | 0.00 | 0.00 | 0.00 | 84 | 1012.0 |
| 20260904182049 | 77 | 105 | 4.3 | 9.6 | 0.00 | 0.00 | 0.00 | 84 | 1012.0 |
| 20260904181549 | 77 | 85 | 5.2 | 9.6 | 0.00 | 0.00 | 0.00 | 84 | 1011.9 |
| 20260904181051 | 78 | 67 | 4.3 | 9.6 | 0.00 | 0.00 | 0.00 | 84 | 1011.9 |
| 20260904180551 | 77 | 77 | 6.1 | 9.6 | 0.00 | 0.00 | 0.00 | 84 | 1011.8 |
| 20260904180048 | 77 | 75 | 6.1 | 12.2 | 0.00 | 0.00 | 0.00 | 85 | 1011.8 |
| 20260904175547 | 77 | 96 | 6.1 | 12.2 | 0.00 | 0.00 | 0.00 | 85 | 1011.8 |
| 20260904175049 | 77 | 81 | 3.5 | 13.0 | 0.00 | 0.00 | 0.00 | 86 | 1011.8 |
| 20260904174546 | 77 | 75 | 7.8 | 13.0 | 0.00 | 0.00 | 0.00 | 86 | 1011.7 |
| 20260904174043 | 76 | 96 | 5.2 | 12.2 | 0.00 | 0.00 | 0.00 | 87 | 1011.7 |
| 20260904173542 | 76 | 75 | 7.0 | 12.2 | 0.00 | 0.00 | 0.00 | 88 | 1011.7 |
| 20260904173043 | 76 | 74 | 7.0 | 12.2 | 0.00 | 0.00 | 0.00 | 89 | 1011.6 |
| 20260904172539 | 75 | 91 | 5.2 | 12.2 | 0.00 | 0.00 | 0.00 | 90 | 1011.6 |
| 20260904172039 | 75 | 79 | 7.0 | 13.0 | 0.00 | 0.00 | 0.00 | 90 | 1011.6 |
| 20260904171542 | 75 | 52 | 7.8 | 12.2 | 0.00 | 0.00 | 0.00 | 89 | 1011.6 |